Regional Weather Roundup
Issued by NWS

Home | Current Version | Previous Version | Graphics & Text | Print | Product List | Glossary On
Versions: 1 2 3 4 5 6 7 8 9 10 11 12 13 14 15 16 17 18 19 20 21 22 23 24 25 26 27 28 29 30 31 32 33 34 35 36 37 38 39 40 41 42 43 44 45 46 47 48 49 50
868
ASUS43 KMKX 291700
RWRWI

WISCONSIN REGIONAL WEATHER ROUNDUP
NATIONAL WEATHER SERVICE MILWAUKEE/SULLIVAN WI
1200 PM CDT SAT APR 29 2017

NOTE: "FAIR" INDICATES FEW OR NO CLOUDS BELOW 12,000 FEET WITH NO
SIGNIFICANT WEATHER AND/OR OBSTRUCTIONS TO VISIBILITY.

WIZ001-002-006>008-014>016-023>028-291800-
NORTHWEST WISCONSIN

CITY           SKY/WX    TMP DP  RH WIND       PRES   REMARKS
SUPERIOR ARPT  SUNNY     45  24  43 NE9       30.36F
ASHLAND        SUNNY     46  24  42 N14       30.35F
HAYWARD        SUNNY     48  21  34 MISG      30.30F
SIREN          SUNNY     49  19  30 NE8G16    30.30F
CUMBERLAND     SUNNY     46  21  36 E10G18    30.29F
RICE LAKE      SUNNY     48  25  40 N8G16     30.30F
CHETEK         SUNNY     47  26  42 E8        30.29F
LADYSMITH      SUNNY     49  26  40 NE9       30.29F
EAU CLAIRE     NOT AVBL
MENOMONIE      SUNNY     49  23  35 NE13G18   30.27F
NEW RICHMOND   MOSUNNY   47  21  35 E13G18    30.28F
OSCEOLA        SUNNY     49  26  40 NE8G20    30.31F
$$

WIZ003>005-009-010-017-018-291800-
NORTH CENTRAL WISCONSIN

CITY           SKY/WX    TMP DP  RH WIND       PRES   REMARKS
MANITOWISH WTR SUNNY     44  21  41 NE10      30.29F
ARBOR VITAE    SUNNY     44  22  41 N10G16    30.28S
WOODRUFF       SUNNY     44  22  41 N10G16    30.28S
RHINELANDER    SUNNY     46  23  40 VRB7G17   30.29S
EAGLE RIVER    SUNNY     44  21  39 NE13      30.29R
LAND O LAKES   SUNNY     43  21  42 N14       30.31R
PHILLIPS       SUNNY     46  25  44 N12G20    30.28S
TOMAHAWK       SUNNY     45  24  42 NE12      30.29S
MEDFORD        SUNNY     44  27  50 NE12      30.27F
MERRILL        SUNNY     46  26  44 NE10G18   30.28F
$$

WIZ029-030-035-036-043>047-291800-
CENTRAL WISCONSIN

CITY           SKY/WX    TMP DP  RH WIND       PRES   REMARKS
WAUSAU         MOSUNNY   46  25  43 NE13      30.26F
MOSINEE        PTSUNNY   46  28  49 NE10      30.28S
MARSHFIELD     PTSUNNY   46  26  45 NE13      30.24F
STEVENS POINT  MOSUNNY   44  24  46 NE9       30.28S
WAUPACA        CLOUDY    49  28  45 NE10      30.28F
WAUTOMA        CLOUDY    45  27  49 NE15G23   30.26F
WISC RAPIDS    CLOUDY    46  25  43 E12       30.26F
CAMP DOUGLAS   NOT AVBL
$$

WIZ011>013-019>022-031-037>040-048>050-291800-
NORTHEAST WISCONSIN

CITY           SKY/WX    TMP DP  RH WIND       PRES   REMARKS
ANTIGO         SUNNY     45  26  48 NE12G18   30.28F
SHAWANO        CLOUDY    49  29  46 NE9G16    30.30S
OCONTO         NOT AVBL
STURGEON BAY   CLOUDY    42  30  62 N18       30.31R
GREEN BAY      CLOUDY    44  33  65 NE17G23   30.29F
MANITOWOC      NOT AVBL
APPLETON       PTSUNNY   43  27  52 NE15G22   30.26S
CLINTONVILLE   MOSUNNY   46  28  49 NE13      30.29S
OSHKOSH        CLOUDY    44  30  57 NE16      30.26F
$$

WIZ032>034-041-042-053>061-291800-
SOUTHWEST WISCONSIN

CITY           SKY/WX    TMP DP  RH WIND       PRES   REMARKS
LA CROSSE      CLOUDY    48  27  44 NE12      30.23F
SPARTA         CLOUDY    46  28  49 E15G21    30.25F
VIROQUA        CLOUDY    43  30  60 NE16      30.21F
BOSCOBEL       CLOUDY    46  29  51 MISG      30.20F
PRAIRIE DU CHI CLOUDY    44  28  53 NE9G21    30.18F
PLATTEVILLE    CLOUDY    45  35  67 NE21      30.17R
$$

WIZ056-057-062-063-064-067-068-291800-
SOUTH CENTRAL WISCONSIN

CITY           SKY/WX    TMP DP  RH WIND       PRES   REMARKS
REEDSBURG      PTSUNNY   42  29  58 NE15      30.23F
BARABOO/DELLS  PTSUNNY   43  29  59 NE12G17   30.23S
LONE ROCK      NOT AVBL
MINERAL POINT  CLOUDY    45  32  61 NE21G28   30.17R
MADISON        CLOUDY    44  32  62 NE21      30.21R
MIDDLETON      PTSUNNY   45  33  64 NE16      30.22R
WATERTOWN      CLOUDY    44  33  64 NE15G23   30.20F
MONROE         CLOUDY    43  32  65 NE21G26   30.15S
JANESVILLE     CLOUDY    46  34  61 NE14G21   30.17S
$$

WIZ051-052-058>065-066-070>072-291800-
SOUTHEAST WISCONSIN

CITY           SKY/WX    TMP DP  RH WIND       PRES   REMARKS
MILWAUKEE      CLOUDY    41  31  67 NE22G30   30.24R
WAUKESHA       SUNNY     41  28  60 NE17G25   30.21F
MILWAUKEE/TIMM SUNNY     41  28  60 NE20G26   30.23F
RACINE         CLOUDY    41  30  65 NE22G30   30.25R
KENOSHA        CLOUDY    42  31  64 NE21G28   30.22R
FOND DU LAC    CLOUDY    44  30  57 NE16      30.25F
SHEBOYGAN      CLOUDY    40  34  79 NE22G29   30.26F WCI  30
WEST BEND      CLOUDY    41  30  65 NE14G22   30.23F
JUNEAU         CLOUDY    42  31  63 N15G21    30.23F
$$

LSZ147-162-291800-
LAKE SUPERIOR

STATION/POSITION TIME  TEMP    WIND        PRES    WAVE
                       AIR SEA DIR/SP/G            HT/PER
                 (UTC) (F)     (DEG/KT/KT) (MB)    (FT/S)
DEVILS ISLAND    1600   37      40/  6/  7 1029.8R
SAXON HARBOR     1640   38     360/  8/ 10 1027.8F
$$

LMZ867-665-643>646-291800-
LAKE MICHIGAN

STATION/POSITION TIME  TEMP    WIND        PRES    WAVE
                       AIR SEA DIR/SP/G            HT/PER
                 (UTC) (F)     (DEG/KT/KT) (MB)    (FT/S)
CHAMBERS ISLAND  1640   39      30/  9/ 12 1026.4R
N MID LAKE BUOY  1550   36 37   30/  8/ 10 1027.2S   1/ 3
NORTHPORT PIER   1640   40     330/ 10/ 15 1026.4R
KEWAUNEE LAKESHO 1630   40      50/ 10/ 15 1025.8R
SHEBOYGAN LAKESH 1600   38      20/ 21/ 24 1025.6R
PORT WASHINGTON  1640   41      20/ 16/ 26 1025.1F
MILWAUKEE LAKESH 1630   39      20/ 27/ 31   N/A
S MID LAKE BUOY  1550   40 41   10/ 19/ 23 1022.3R   4/ 6
KENOSHA   LAKESH 1600   40      20/ 30/ 33 1022.4
$$

TC  - TEMPERATURE IN CELSIUS
VSB - VISIBILITY IN STATUTE MILES
WCI - WIND CHILL INDEX
HX  - HEAT INDEX





USA.gov is the U.S. government's official web portal to all federal, state and local government web resources and services.